Location: Lake Crest
(37.6062°N, 88.9176°W)
Time: 10:41:14
(UTC+00:00)

ADEOS Rocket - Pass Details

Date: 15 December 2019
Orbit: 859 x 1307 km, 98.7° (Epoch: 24 January)

Event Time Altitude Azimuth Distance (km) Brightness Sun altitude
Exits shadow 01:09:58 26° 172° (S) 1,677 4.2 -29.2°
Drops below altitude 10° 01:12:22 10° 181° (S) 2,564 5.3 -29.7°
Sets 01:14:52 0° 185° (S) 3,544 6.1 -30.2°
